ROU1508 CYQT-CYYZ

Flight info

Callsign ROU1508
Flight time N/A
Altitude 37000
Route OTNIK BOXUM7
Aircraft A320/M-SDE3FGHIRWY/LB1

Departure

Time 2026-04-11 15:21
Airport Thunder Bay International Airport (CYQT)

Arrival

Time N/A
Airport Toronto Pearson International Airport (CYYZ)
Time Latitude Longitude Altitude Speed Heading
2026-04-11 14:43 48.37238 -89.31281 653 ft 0 kts 128°
2026-04-11 15:07 48.37240 -89.31284 653 ft 2 kts 128°
2026-04-11 15:07 48.37250 -89.31305 654 ft 2 kts 128°
2026-04-11 15:08 48.37261 -89.31324 653 ft 2 kts 116°
2026-04-11 15:08 48.37263 -89.31349 654 ft 2 kts 43°
2026-04-11 15:08 48.37260 -89.31354 655 ft 0 kts 33°
2026-04-11 15:14 48.37265 -89.31349 654 ft 5 kts 33°
2026-04-11 15:14 48.37317 -89.31357 653 ft 10 kts 283°
2026-04-11 15:15 48.37290 -89.31491 653 ft 18 kts 251°
2026-04-11 15:15 48.37244 -89.31683 652 ft 21 kts 250°
2026-04-11 15:15 48.37194 -89.31899 652 ft 23 kts 250°
2026-04-11 15:15 48.37137 -89.32138 652 ft 25 kts 250°
2026-04-11 15:16 48.37078 -89.32393 649 ft 26 kts 251°
2026-04-11 15:16 48.37024 -89.32640 646 ft 20 kts 265°
2026-04-11 15:16 48.37084 -89.32837 647 ft 22 kts 301°
2026-04-11 15:16 48.37092 -89.33044 648 ft 21 kts 250°
2026-04-11 15:17 48.37056 -89.33245 651 ft 16 kts 260°
2026-04-11 15:17 48.37028 -89.33336 649 ft 3 kts 115°
2026-04-11 15:17 48.37030 -89.33310 650 ft 0 kts 70°
2026-04-11 15:20 48.37121 -89.32918 649 ft 84 kts 70°
2026-04-11 15:21 48.37399 -89.31737 664 ft 151 kts 71°
2026-04-11 15:21 48.37752 -89.30229 1420 ft 151 kts 71°
2026-04-11 15:21 48.38107 -89.28736 2320 ft 152 kts 72°
2026-04-11 15:21 48.38466 -89.27249 2904 ft 153 kts 72°
2026-04-11 15:22 48.38824 -89.25753 3445 ft 152 kts 73°
2026-04-11 15:22 48.39129 -89.24224 3881 ft 158 kts 86°
2026-04-11 15:22 48.38890 -89.22540 4088 ft 177 kts 116°
2026-04-11 15:22 48.38328 -89.20747 4293 ft 202 kts 117°
2026-04-11 15:23 48.37673 -89.18738 4598 ft 226 kts 117°
2026-04-11 15:23 48.36945 -89.16504 4975 ft 250 kts 116°
2026-04-11 15:23 48.36155 -89.14067 5521 ft 266 kts 116°
2026-04-11 15:23 48.35335 -89.11526 6283 ft 274 kts 116°
2026-04-11 15:24 48.34490 -89.08906 7050 ft 281 kts 116°
2026-04-11 15:24 48.33629 -89.06227 7793 ft 288 kts 116°
2026-04-11 15:24 48.32745 -89.03480 8526 ft 295 kts 116°
2026-04-11 15:24 48.31844 -89.00677 9259 ft 302 kts 116°
2026-04-11 15:25 48.30920 -88.97807 9997 ft 308 kts 116°
2026-04-11 15:25 48.29957 -88.94819 10371 ft 329 kts 116°
2026-04-11 15:25 48.28924 -88.91616 10635 ft 350 kts 116°
2026-04-11 15:25 48.27848 -88.88268 11197 ft 359 kts 116°
2026-04-11 15:26 48.26753 -88.84862 11850 ft 365 kts 116°
2026-04-11 15:26 48.25637 -88.81405 12513 ft 371 kts 116°
2026-04-11 15:26 48.24500 -88.77888 13168 ft 377 kts 116°
2026-04-11 15:26 48.23341 -88.74327 13818 ft 383 kts 116°
2026-04-11 15:27 48.22166 -88.70719 14430 ft 389 kts 116°
2026-04-11 15:27 48.20969 -88.67043 14959 ft 395 kts 116°
2026-04-11 15:27 48.19843 -88.63587 15503 ft 399 kts 117°
2026-04-11 15:28 48.17495 -88.56378 16605 ft 408 kts 117°
2026-04-11 15:28 48.16244 -88.52541 17161 ft 412 kts 117°
2026-04-11 15:28 48.14960 -88.48614 17737 ft 417 kts 117°
2026-04-11 15:28 48.13688 -88.44739 18284 ft 421 kts 117°
2026-04-11 15:29 48.12383 -88.40784 18823 ft 426 kts 117°
2026-04-11 15:29 48.11065 -88.36791 19309 ft 430 kts 117°
2026-04-11 15:29 48.09723 -88.32728 19819 ft 434 kts 117°
2026-04-11 15:29 48.08392 -88.28692 20330 ft 438 kts 117°
2026-04-11 15:30 48.07037 -88.24584 20778 ft 443 kts 117°
2026-04-11 15:30 48.05668 -88.20444 21263 ft 447 kts 117°
2026-04-11 15:30 48.04278 -88.16246 21761 ft 451 kts 117°
2026-04-11 15:30 48.02881 -88.12042 22258 ft 454 kts 117°
2026-04-11 15:31 48.01464 -88.07798 22752 ft 458 kts 117°
2026-04-11 15:31 48.00037 -88.03528 23240 ft 462 kts 117°
2026-04-11 15:31 47.98598 -87.99226 23721 ft 464 kts 117°
2026-04-11 15:31 47.97153 -87.94901 24177 ft 467 kts 117°
2026-04-11 15:32 47.94354 -87.86545 24921 ft 473 kts 117°
2026-04-11 15:32 47.92875 -87.82142 25260 ft 477 kts 117°
2026-04-11 15:32 47.91380 -87.77703 25618 ft 480 kts 117°
2026-04-11 15:33 47.89876 -87.73239 25978 ft 483 kts 117°